Weather History for Kodiak, AK

Change the Weather History Date:

Sunday, November 6, 2011

  Actual Average Record
Temperature  
Mean Temperature 39 °F 36 °F  
Max Temperature 45 °F 41 °F 50 °F (1979)
Min Temperature 32 °F 30 °F 15 °F (1956)
Degree Days  
Heating Degree Days 26 30  
Month to date heating degree days 166 175  
Since 1 July heating degree days 1966 2033  
Cooling Degree Days 0    
Month to date cooling degree days 0  
Year to date cooling degree days 0  
Moisture  
Dew Point 28 °F    
Average Humidity 0    
Maximum Humidity 0    
Minimum Humidity 0    
Precipitation  
Precipitation 0.01 in 0.22 in 0.88 in (1963)
Month to date precipitation 0.57 1.36  
Year to date precipitation 60.65 63.76  
Snow  
Snow 0.00 in 0.20 in 2.70 in (2004)
Month to date snowfall 1.8 0.7  
Since 1 July snowfall 1.8 1.8  
Since 1 September snowfall 1.8 1.8  
Snow Depth 0.00 in    
Sea Level Pressure  
Sea Level Pressure 29.35 in    
Wind  
Wind Speed 13 mph (SW)    
Max Wind Speed 37 mph    
Max Gust Speed 53 mph    
Visibility 10 miles    
Events Rain    
T = Trace of Precipitation, MM = Missing Value Source: NWS Daily Summary

Daily Weather History Graph

Daily Weather History Graph

Search for Another Location

Airport:

Trip Planner

Search our weather history database for the weather conditions in past years. The results will help you decide how hot, cold, wet, or windy it might be!

Date:

Astronomy

Nov. 06, 2011 Rise Set
Actual Time 8:34 AM AKST 5:11 PM AKST
Civil Twilight 7:51 AM AKST 5:54 PM AKST
Nautical Twilight 7:04 AM AKST 6:41 PM AKST
Astronomical Twilight 6:19 AM AKST 7:26 PM AKST
Moon 3:33 PM AKST (11/6) 4:11 AM AKST (11/6)
Length of Visible Light 10h 02m
Length of Day
8h 37m
Waxing Gibbous, 86% of the Moon is Illuminated
Nov 6
Waxing Gibbous
Nov 10
Full
Nov 18
Last Quarter
Nov 24
New
Dec 2
First Quarter

Hourly Weather History & Observations

Time (AKST) Temp. Windchill Dew Point Humidity Pressure Visibility Wind Dir Wind Speed Gust Speed Precip Events Conditions
12:53 AM 42.1 °F 35.2 °F 28.9 °F 60% 29.28 in 10.0 mi West 12.7 mph 26.5 mph N/A   Mostly Cloudy
1:53 AM 42.1 °F 37.1 °F 28.0 °F 58% 29.32 in 10.0 mi SW 8.1 mph - N/A   Mostly Cloudy
1:53 AM 39.9 °F 32.5 °F 30.0 °F 68% 29.34 in 10.0 mi West 12.7 mph - 0.00 in Rain Light Rain
3:53 AM 37.9 °F 33.5 °F 27.0 °F 65% 29.34 in 10.0 mi SSW 5.8 mph - N/A   Scattered Clouds
4:53 AM 37.9 °F 30.9 °F 27.0 °F 65% 29.31 in 10.0 mi South 10.4 mph - N/A   Scattered Clouds
5:53 AM 37.9 °F 30.5 °F 28.0 °F 68% 29.33 in 10.0 mi South 11.5 mph - N/A   Scattered Clouds
6:53 AM 39.0 °F 31.8 °F 28.0 °F 65% 29.32 in 10.0 mi South 11.5 mph - N/A   Scattered Clouds
7:53 AM 37.9 °F 32.7 °F 28.9 °F 70% 29.32 in 10.0 mi SSW 6.9 mph - 0.00 in Rain Light Rain
8:53 AM 37.9 °F 33.5 °F 30.0 °F 73% 29.31 in 10.0 mi South 5.8 mph - 0.00 in   Partly Cloudy
9:53 AM 41.0 °F 35.2 °F 30.9 °F 67% 29.31 in 10.0 mi SSW 9.2 mph - N/A   Scattered Clouds
10:53 AM 41.0 °F 34.7 °F 32.0 °F 70% 29.31 in 10.0 mi SSW 10.4 mph - N/A   Mostly Cloudy
11:53 AM 41.0 °F 35.8 °F 33.1 °F 73% 29.31 in 10.0 mi SSW 8.1 mph - 0.00 in   Scattered Clouds
12:53 PM 43.0 °F 38.2 °F 32.0 °F 65% 29.31 in 10.0 mi SW 8.1 mph - N/A   Scattered Clouds
1:53 PM 43.0 °F 35.7 °F 28.0 °F 56% 29.32 in 10.0 mi WSW 15.0 mph 19.6 mph N/A   Scattered Clouds
2:53 PM 39.2 °F 32.5 °F 30.2 °F 70% 29.32 in 10.0 mi SW 10.4 mph - N/A   Scattered Clouds
3:53 PM 41.0 °F 34.7 °F 28.9 °F 62% 29.34 in 10.0 mi SW 10.4 mph - 0.00 in   Scattered Clouds
4:53 PM 41.0 °F 38.0 °F 28.0 °F 60% 29.36 in 10.0 mi West 4.6 mph - 0.00 in   Overcast
5:51 PM 37.4 °F 30.3 °F 30.2 °F 75% 29.37 in 10.0 mi SSW 10.4 mph - 0.00 in Rain Light Rain
5:53 PM 37.9 °F 30.5 °F 30.9 °F 76% 29.38 in 10.0 mi SW 11.5 mph - 0.00 in Rain Light Rain
6:02 PM 37.4 °F 29.8 °F 30.2 °F 75% 29.37 in 10.0 mi WSW 11.5 mph 19.6 mph 0.01 in Rain Light Rain
6:53 PM 39.0 °F 28.8 °F 24.1 °F 55% 29.39 in 10.0 mi WSW 21.9 mph 34.5 mph 0.01 in   Mostly Cloudy
7:53 PM 37.9 °F 26.6 °F 21.9 °F 53% 29.42 in 10.0 mi West 25.3 mph 42.6 mph N/A   Scattered Clouds
8:53 PM 35.1 °F 22.7 °F 21.0 °F 57% 29.45 in 10.0 mi West 25.3 mph 49.5 mph N/A   Partly Cloudy
9:53 PM 34.0 °F 21.3 °F 18.0 °F 52% 29.50 in 10.0 mi West 25.3 mph 32.2 mph N/A   Partly Cloudy
10:53 PM 33.1 °F 21.9 °F 15.1 °F 48% 29.54 in 10.0 mi West 18.4 mph 33.4 mph N/A   Partly Cloudy